Hourly Weather Homino

Today, 12 April, Monday

Time Temperature Precipitation Wind Pressure Humidity
00:00 +7°C° 0 mm 3 mps 754 mmHg 75%
01:00 +7°C° 0 mm 3 mps 754 mmHg 77%
02:00 +7°C° 0 mm 3 mps 754 mmHg 77%
03:00 +5°C° 0 mm 3 mps 754 mmHg 78%
04:00 +5°C° 0 mm 3 mps 754 mmHg 79%
05:00 +4°C° 0 mm 3 mps 754 mmHg 80%
06:00 +7°C° 0 mm 3 mps 754 mmHg 74%
07:00 +8°C° 0 mm 3 mps 754 mmHg 68%
08:00 +10°C° 0 mm 4 mps 753 mmHg 62%
09:00 +11°C° 0 mm 4 mps 753 mmHg 57%
10:00 +12°C° 0 mm 5 mps 753 mmHg 51%
11:00 +14°C° 0 mm 5 mps 752 mmHg 45%
12:00 +14°C° 0 mm 5 mps 752 mmHg 42%
13:00 +14°C° 0 mm 5 mps 751 mmHg 39%
14:00 +15°C° 0 mm 5 mps 751 mmHg 36%
15:00 +13°C° 0 mm 5 mps 751 mmHg 46%
16:00 +12°C° 0 mm 5 mps 750 mmHg 56%
17:00 +10°C° 0 mm 4 mps 750 mmHg 66%
18:00 +8°C° 0.3 mm 4 mps 750 mmHg 74%
19:00 +9°C° 0.3 mm 3 mps 750 mmHg 83%
20:00 +8°C° 0.3 mm 3 mps 750 mmHg 91%
21:00 +8°C° 0.1 mm 2 mps 750 mmHg 91%
22:00 +8°C° 0.1 mm 2 mps 749 mmHg 91%
23:00 +10°C° 0.1 mm 1 mps 749 mmHg 91%

Tomorrow, 13 April, Tuesday

Time Temperature Precipitation Wind Pressure Humidity
00:00 +9°C° 0.1 mm 1 mps 749 mmHg 92%
01:00 +9°C° 0.1 mm 1 mps 749 mmHg 93%
02:00 +9°C° 0.1 mm 1 mps 749 mmHg 94%
03:00 +9°C° 0 mm 1 mps 748 mmHg 94%
04:00 +9°C° 0 mm 1 mps 748 mmHg 94%
05:00 +8°C° 0 mm 0 mps 748 mmHg 94%
06:00 +9°C° 0 mm 0 mps 748 mmHg 92%
07:00 +10°C° 0 mm 0 mps 748 mmHg 90%
08:00 +11°C° 0 mm 1 mps 748 mmHg 88%
09:00 +13°C° 0 mm 1 mps 748 mmHg 83%
10:00 +14°C° 0 mm 1 mps 748 mmHg 78%
11:00 +15°C° 0 mm 2 mps 748 mmHg 73%
12:00 +16°C° 0 mm 2 mps 748 mmHg 72%
13:00 +16°C° 0 mm 2 mps 747 mmHg 70%
14:00 +16°C° 0 mm 3 mps 747 mmHg 69%
15:00 +16°C° 0.3 mm 3 mps 747 mmHg 72%
16:00 +14°C° 0.3 mm 3 mps 747 mmHg 76%
17:00 +13°C° 0.3 mm 3 mps 746 mmHg 80%
18:00 +13°C° 0.1 mm 3 mps 746 mmHg 83%
19:00 +12°C° 0.1 mm 3 mps 746 mmHg 86%
20:00 +11°C° 0.1 mm 3 mps 746 mmHg 89%
21:00 +11°C° 0 mm 3 mps 746 mmHg 90%
22:00 +11°C° 0 mm 3 mps 746 mmHg 92%
23:00 +10°C° 0 mm 3 mps 746 mmHg 93%

Day after tomorrow, 14 April, Wednesday

Time Temperature Precipitation Wind Pressure Humidity
00:00 +10°C° 0 mm 3 mps 745 mmHg 94%
01:00 +10°C° 0 mm 3 mps 745 mmHg 94%
02:00 +10°C° 0 mm 3 mps 745 mmHg 95%
03:00 +10°C° 0 mm 3 mps 745 mmHg 95%
04:00 +9°C° 0 mm 3 mps 745 mmHg 95%
05:00 +9°C° 0 mm 3 mps 745 mmHg 96%
06:00 +9°C° 0 mm 3 mps 745 mmHg 93%
07:00 +10°C° 0 mm 3 mps 745 mmHg 91%
08:00 +10°C° 0 mm 3 mps 745 mmHg 89%
09:00 +11°C° 0.1 mm 3 mps 745 mmHg 82%
10:00 +12°C° 0.1 mm 3 mps 745 mmHg 75%
11:00 +13°C° 0.1 mm 4 mps 745 mmHg 69%
12:00 +13°C° 0.1 mm 3 mps 745 mmHg 68%
13:00 +13°C° 0.1 mm 3 mps 745 mmHg 68%
14:00 +13°C° 0.1 mm 3 mps 745 mmHg 68%
15:00 +14°C° 0 mm 2 mps 745 mmHg 66%
16:00 +14°C° 0 mm 2 mps 744 mmHg 65%
17:00 +14°C° 0 mm 1 mps 744 mmHg 63%
18:00 +14°C° 0 mm 1 mps 744 mmHg 68%
19:00 +13°C° 0 mm 1 mps 744 mmHg 72%
20:00 +12°C° 0 mm 1 mps 745 mmHg 77%
21:00 +11°C° 0 mm 1 mps 744 mmHg 80%
22:00 +11°C° 0 mm 1 mps 744 mmHg 83%
23:00 +11°C° 0 mm 1 mps 744 mmHg 86%

15 April, Thursday

Time Temperature Precipitation Wind Pressure Humidity
00:00 +9°C° 0.1 mm 2 mps 744 mmHg 89%
01:00 +9°C° 0.1 mm 2 mps 744 mmHg 92%
02:00 +8°C° 0.1 mm 2 mps 744 mmHg 95%
03:00 +8°C° 0.4 mm 2 mps 744 mmHg 95%
04:00 +8°C° 0.4 mm 2 mps 744 mmHg 96%
05:00 +9°C° 0.4 mm 1 mps 744 mmHg 97%
06:00 +10°C° 0.2 mm 1 mps 744 mmHg 96%
07:00 +10°C° 0.2 mm 1 mps 744 mmHg 95%
08:00 +10°C° 0.2 mm 1 mps 744 mmHg 94%
09:00 +11°C° 0.1 mm 1 mps 744 mmHg 90%
10:00 +12°C° 0.1 mm 1 mps 744 mmHg 86%
11:00 +13°C° 0.1 mm 1 mps 744 mmHg 81%
12:00 +13°C° 0.2 mm 1 mps 744 mmHg 76%
13:00 +14°C° 0.2 mm 1 mps 744 mmHg 71%
14:00 +15°C° 0.2 mm 1 mps 744 mmHg 65%
15:00 +15°C° 0.4 mm 2 mps 744 mmHg 68%
16:00 +15°C° 0.4 mm 2 mps 744 mmHg 71%
17:00 +13°C° 0.4 mm 3 mps 744 mmHg 73%
18:00 +12°C° 0.7 mm 3 mps 744 mmHg 79%
19:00 +12°C° 0.7 mm 2 mps 744 mmHg 84%
20:00 +10°C° 0.7 mm 2 mps 744 mmHg 89%
21:00 +10°C° 0.2 mm 2 mps 744 mmHg 90%
22:00 +10°C° 0.2 mm 2 mps 744 mmHg 90%
23:00 +10°C° 0.2 mm 2 mps 744 mmHg 90%

16 April, Friday

Time Temperature Precipitation Wind Pressure Humidity
00:00 +10°C° 0 mm 3 mps 744 mmHg 90%
01:00 +10°C° 0 mm 4 mps 744 mmHg 89%
02:00 +9°C° 0 mm 5 mps 744 mmHg 89%
03:00 +8°C° 0 mm 5 mps 744 mmHg 90%
04:00 +8°C° 0 mm 5 mps 744 mmHg 90%
05:00 +7°C° 0 mm 6 mps 744 mmHg 91%
06:00 +8°C° 0.1 mm 6 mps 744 mmHg 90%
07:00 +8°C° 0.1 mm 6 mps 744 mmHg 89%
08:00 +8°C° 0.1 mm 6 mps 745 mmHg 88%
09:00 +8°C° 0 mm 6 mps 745 mmHg 87%
10:00 +8°C° 0 mm 6 mps 745 mmHg 86%
11:00 +9°C° 0 mm 6 mps 745 mmHg 86%
12:00 +9°C° 0 mm 6 mps 745 mmHg 85%
13:00 +9°C° 0 mm 6 mps 745 mmHg 84%
14:00 +10°C° 0 mm 7 mps 745 mmHg 82%
15:00 +9°C° 0.1 mm 7 mps 746 mmHg 84%
16:00 +9°C° 0.1 mm 7 mps 746 mmHg 85%
17:00 +9°C° 0.1 mm 7 mps 746 mmHg 86%
18:00 +9°C° 0.9 mm 7 mps 746 mmHg 87%
19:00 +9°C° 0.9 mm 6 mps 746 mmHg 88%
20:00 +9°C° 0.9 mm 6 mps 746 mmHg 89%
21:00 +9°C° 0.6 mm 6 mps 747 mmHg 89%
22:00 +9°C° 0.6 mm 7 mps 747 mmHg 89%
23:00 +8°C° 0.6 mm 7 mps 747 mmHg 90%

17 April, Saturday

Time Temperature Precipitation Wind Pressure Humidity
00:00 +8°C° 0.7 mm 7 mps 748 mmHg 89%
01:00 +8°C° 0.7 mm 6 mps 748 mmHg 89%
02:00 +7°C° 0.7 mm 6 mps 748 mmHg 89%
03:00 +7°C° 0 mm 6 mps 749 mmHg 89%
04:00 +7°C° 0 mm 6 mps 749 mmHg 89%
05:00 +6°C° 0 mm 5 mps 750 mmHg 89%
06:00 +6°C° 0 mm 5 mps 750 mmHg 86%
07:00 +7°C° 0 mm 6 mps 750 mmHg 83%
08:00 +7°C° 0 mm 6 mps 751 mmHg 80%
09:00 +7°C° 0 mm 6 mps 751 mmHg 79%
10:00 +8°C° 0 mm 6 mps 752 mmHg 78%
11:00 +8°C° 0 mm 6 mps 752 mmHg 76%
12:00 +9°C° 0 mm 6 mps 752 mmHg 74%
13:00 +9°C° 0 mm 6 mps 752 mmHg 71%
14:00 +10°C° 0 mm 6 mps 753 mmHg 69%
15:00 +10°C° 0 mm 5 mps 753 mmHg 67%
16:00 +10°C° 0 mm 5 mps 753 mmHg 65%
17:00 +12°C° 0 mm 5 mps 753 mmHg 63%
18:00 +11°C° 0 mm 4 mps 753 mmHg 64%
19:00 +8°C° 0 mm 4 mps 753 mmHg 66%
20:00 +7°C° 0 mm 4 mps 754 mmHg 68%
21:00 +6°C° 0 mm 4 mps 754 mmHg 67%
22:00 +6°C° 0 mm 4 mps 754 mmHg 67%
23:00 +5°C° 0 mm 5 mps 754 mmHg 66%
Show more